{"data":{"norad_id":36868,"epoch":"2026-09-19T17:32:59.941248Z","epoch_age_seconds":84662,"freshness":"FRESH","line1":"1 36868U 10039A   26262.73124932  .00000146  00000+0  00000+0 0  9992","line2":"2 36868   8.4562  66.8024 0003872 114.5852 110.5466  1.00267240 54600","mean_motion":1.0026724,"eccentricity":0.0003872,"inclination_deg":8.4562,"raan_deg":66.8024,"arg_perigee_deg":114.5852,"mean_anomaly_deg":110.5466,"bstar":0,"rev_number":5460,"period_min":1436.1620006694,"perigee_km":35771.542460231,"apogee_km":35804.195815384,"semimajor_km":42166.006137808,"source":"CELESTRAK","updated_at":"2026-09-20T09:00:35.165135Z"}}